[[{"header":{"parameterUnit":"m.s-1","parameterCategory":1,"la1":30.2991,"la2":30.254,"lo1":-89.0895,"lo2":-89.0444,"dy":0.0017,"dx":0.0017,"nx":28,"ny":28,"refTime":"2023-09-11T03:00:00:Z","depth":0,"parameterNumber":2,"parameterNumberName":"U-component_of_WINDS"},"data":[0,0,0,0,0,0,0,0,0,0,0,0,0,0,0,0,0,0,0,0,0,0,0,0,0,0,0,0,0,0,0,0,0,0,0,0,0,0,0,0,0,0,0,0,0,0,0,0,0,0,0,0,0,0,0,0,0,0,-0.4338,-0.4337,0,-0.4255,-0.4254,-0.4253,-0.4214,-0.4214,-0.4214,-0.4214,-0.4129,-0.4126,-0.4124,0,0,0,0,0,0,0,0,0,0,0,0,0,-0.4461,-0.4459,-0.4338,-0.4337,-0.4336,-0.4256,-0.4254,-0.4253,-0.4214,-0.4214,-0.4214,-0.4214,-0.4129,-0.4127,-0.4124,0,0,0,0,0,0,0,0,0,0,0,0,0,-0.4396,-0.4458,-0.4338,-0.4307,-0.4303,-0.4256,-0.4254,-0.4253,-0.4214,-0.4214,-0.4214,-0.4214,-0.413,-0.4127,-0.4124,-0.4101,0,0,-0.4113,-0.4112,0,0,0,0,0,0,0,0,-0.44,-0.4392,-0.4312,-0.4309,-0.4304,-0.4245,-0.4266,-0.4202,-0.4214,-0.4248,-0.4214,-0.4214,-0.4167,-0.4161,-0.4145,-0.4097,-0.4094,-0.4113,-0.4111,-0.4109,-0.4108,0,0,0,0,0,0,0,-0.4404,-0.4395,-0.4305,-0.4311,-0.4306,-0.4296,-0.4287,-0.4254,-0.4208,-0.4245,-0.4242,-0.4232,-0.4165,-0.4149,-0.4143,-0.4092,-0.4113,-0.411,-0.4108,-0.4106,-0.4022,-0.4022,0,0,0,0,0,0,-0.4414,-0.4399,-0.4308,-0.4303,-0.4353,-0.4294,-0.4284,-0.4264,-0.4208,-0.42,-0.4232,-0.4231,-0.4154,-0.4147,-0.414,-0.411,-0.4109,-0.4106,-0.4104,-0.4022,-0.4022,-0.4022,0,0,0,0,0,0,-0.4417,-0.4406,-0.4311,-0.435,-0.4337,-0.4292,-0.427,-0.4262,-0.4246,-0.4199,-0.4191,-0.4224,-0.4154,-0.4145,-0.4111,-0.4106,-0.4104,-0.4101,-0.4023,-0.4022,-0.4022,-0.4051,0,0,0,0,0,0,-0.4421,-0.4408,-0.4399,-0.435,-0.4335,-0.4284,-0.427,-0.4261,-0.424,-0.4237,-0.4189,-0.4181,-0.4153,-0.4117,-0.4108,-0.4102,-0.4099,-0.4023,-0.4023,-0.4022,-0.405,-0.4051,-0.4053,0,0,0,0,0,-0.4425,-0.441,-0.4399,-0.4388,-0.4323,-0.4284,-0.4276,-0.4244,-0.424,-0.423,-0.4201,-0.4183,-0.4109,-0.4114,-0.4103,-0.4096,-0.4023,-0.4023,-0.4022,-0.4049,-0.4051,-0.4053,0,0,0,0,0,0,-0.4459,-0.4403,-0.439,-0.4358,-0.4326,-0.4278,-0.4265,-0.4247,-0.4216,-0.4214,-0.4177,-0.4166,-0.4136,-0.4113,-0.4119,-0.4072,-0.4064,-0.4062,-0.4088,-0.4089,-0.4091,-0.4097,-0.4096,0,0,0,0,0,-0.4463,-0.4436,-0.4388,-0.4365,-0.435,-0.431,-0.4292,-0.4271,-0.4236,-0.4222,-0.419,-0.4157,-0.4126,-0.4106,-0.4075,-0.4046,-0.4035,-0.4036,-0.4038,-0.4039,-0.4037,-0.402,-0.402,-0.4021,-0.4021,-0.4021,0,0,-0.4471,-0.4437,-0.4422,-0.4371,-0.4344,-0.4317,-0.4299,-0.4271,-0.425,-0.4218,-0.4184,-0.416,-0.412,-0.4089,-0.4074,-0.4068,-0.4035,-0.4039,-0.404,-0.4037,-0.402,-0.402,-0.402,-0.4021,-0.4021,-0.4021,0,0,-0.4471,-0.4442,-0.442,-0.4393,-0.4352,-0.4326,-0.432,-0.4274,-0.4257,-0.4223,-0.4198,-0.4172,-0.412,-0.4093,-0.4072,-0.4063,-0.4045,-0.4054,-0.4061,-0.4044,-0.4044,-0.4044,-0.404,-0.4039,-0.4052,-0.4052,-0.4052,0,-0.4485,-0.4443,-0.4411,-0.4384,-0.4362,-0.4332,-0.4309,-0.4284,-0.4235,-0.4221,-0.4216,-0.415,-0.4121,-0.4083,-0.4081,-0.4065,-0.4058,-0.4059,-0.4047,-0.4046,-0.4046,-0.4042,-0.404,-0.4053,-0.4053,-0.4053,-0.4053,0,-0.4463,-0.4435,-0.4421,-0.4375,-0.4352,-0.4327,-0.4291,-0.4271,-0.4252,-0.4227,-0.4192,-0.4157,-0.4118,-0.4108,-0.4089,-0.4067,-0.4065,-0.4054,-0.4046,-0.4047,-0.4043,-0.4041,-0.4055,-0.4055,-0.4054,-0.4054,0,0,-0.4482,-0.4418,-0.4414,-0.4392,-0.4345,-0.4322,-0.4296,-0.4258,-0.4243,-0.421,-0.4187,-0.4144,-0.4133,-0.411,-0.4088,-0.4073,-0.4068,-0.4064,-0.4062,-0.4066,-0.4041,-0.405,-0.4049,-0.4056,-0.4055,-0.4055,-0.4045,0,-0.4475,-0.4427,-0.4397,-0.4361,-0.4334,-0.4305,-0.4282,-0.4251,-0.4226,-0.42,-0.4172,-0.4142,-0.4131,-0.4117,-0.4101,-0.4072,-0.4062,-0.4072,-0.4034,-0.4033,-0.4044,-0.4046,-0.4055,-0.4047,-0.4043,-0.4042,-0.4042,0,-0.4461,-0.4429,-0.439,-0.4346,-0.4334,-0.4314,-0.4277,-0.4252,-0.4216,-0.4199,-0.4173,-0.4151,-0.4122,-0.4116,-0.4076,-0.4083,-0.4066,-0.4049,-0.4048,-0.4043,-0.4038,-0.4041,-0.4044,-0.4042,-0.4039,-0.4039,-0.404,0,-0.4478,-0.4426,-0.4396,-0.4378,-0.4326,-0.4313,-0.429,-0.4254,-0.4233,-0.4201,-0.4187,-0.4152,-0.4133,-0.4106,-0.4075,-0.4074,-0.4038,-0.403,-0.4023,-0.4024,-0.4016,-0.4017,-0.4016,-0.4006,-0.4006,-0.4006,-0.4006,0,-0.4474,-0.4451,-0.4403,-0.4384,-0.4358,-0.4324,-0.4299,-0.4274,-0.4242,-0.4219,-0.4191,-0.417,-0.413,-0.4103,-0.4078,-0.4049,-0.404,-0.4025,-0.4019,-0.4028,-0.403,-0.4016,-0.4015,-0.4006,-0.4006,-0.4006,-0.4006,0,-0.4489,-0.4455,-0.4421,-0.4374,-0.4362,-0.4345,-0.4304,-0.4285,-0.4259,-0.423,-0.4221,-0.418,-0.4147,-0.4113,-0.4069,-0.4052,-0.4023,-0.4015,-0.4036,-0.4032,-0.4027,-0.4028,-0.4017,-0.4013,-0.4006,-0.4006,-0.4006,0,-0.4488,-0.447,-0.4421,-0.4403,-0.4381,-0.4353,-0.4332,-0.4297,-0.4276,-0.4234,-0.422,-0.4185,-0.4155,-0.4104,-0.4071,-0.4037,-0.4027,-0.4025,-0.4021,-0.4031,-0.4026,-0.4028,-0.4026,-0.4026,-0.4027,-0.4027,-0.4027,0,-0.449,-0.4474,-0.4445,-0.441,-0.4385,-0.4356,-0.4325,-0.4312,-0.4272,-0.425,-0.4216,-0.4193,-0.4148,-0.4113,-0.4075,-0.4052,-0.4033,-0.4029,-0.4025,-0.4033,-0.4046,-0.4039,-0.4039,-0.4029,-0.4029,-0.4028,-0.4028,-0.4028,-0.4496,-0.4479,-0.4442,-0.441,-0.4384,-0.4356,-0.4336,-0.4307,-0.4279,-0.4239,-0.4221,-0.4187,-0.4151,-0.4098,-0.4075,-0.4048,-0.4042,-0.4037,-0.4036,-0.4035,-0.4037,-0.4051,-0.4041,-0.4041,-0.404,-0.404,-0.404,0,-0.4497,-0.4472,-0.4443,-0.4401,-0.4376,-0.436,-0.4326,-0.4306,-0.4276,-0.4245,-0.4216,-0.4177,-0.4144,-0.4108,-0.4072,-0.4058,-0.4048,-0.4049,-0.405,-0.4045,-0.4044,-0.4051,-0.4058,-0.4058,-0.4058,-0.4058,-0.4058,-0.4058,-0.4494,-0.4464,-0.4444,-0.44,-0.4375,-0.4342,-0.4323,-0.4298,-0.4272,-0.423,-0.4202,-0.4179,-0.4145,-0.4107,-0.4076,-0.4066,-0.4054,-0.4058,-0.4046,-0.4046,-0.4045,-0.4044,-0.4049,-0.4056,-0.4056,-0.4049,-0.4049,-0.4049]},{"header":{"parameterUnit":"m.s-1","parameterCategory":1,"la1":30.2991,"la2":30.254,"lo1":-89.0895,"lo2":-89.0444,"dy":0.0017,"dx":0.0017,"nx":28,"ny":28,"refTime":"2023-09-11T03:00:00:Z","depth":0,"parameterNumber":3,"parameterNumberName":"V-component_of_WINDS"},"data":[0,0,0,0,0,0,0,0,0,0,0,0,0,0,0,0,0,0,0,0,0,0,0,0,0,0,0,0,0,0,0,0,0,0,0,0,0,0,0,0,0,0,0,0,0,0,0,0,0,0,0,0,0,0,0,0,0,0,2.8195,2.8195,0,2.8166,2.8165,2.8165,2.816,2.816,2.8161,2.8161,2.8126,2.8125,2.8124,0,0,0,0,0,0,0,0,0,0,0,0,0,2.8244,2.8243,2.8195,2.8195,2.8194,2.8166,2.8165,2.8165,2.816,2.8161,2.8161,2.8161,2.8126,2.8125,2.8124,0,0,0,0,0,0,0,0,0,0,0,0,0,2.8219,2.8242,2.8195,2.8189,2.8188,2.8166,2.8165,2.8165,2.816,2.8161,2.8161,2.8161,2.8127,2.8125,2.8123,2.8104,0,0,2.8118,2.8117,0,0,0,0,0,0,0,0,2.822,2.8217,2.819,2.8189,2.8188,2.8167,2.8169,2.8144,2.816,2.817,2.8161,2.8162,2.8139,2.8136,2.813,2.8102,2.8101,2.8118,2.8117,2.8116,2.8115,0,0,0,0,0,0,0,2.8222,2.8218,2.8183,2.819,2.8188,2.8186,2.8183,2.8165,2.8153,2.817,2.8169,2.8166,2.8139,2.8131,2.8129,2.81,2.8118,2.8116,2.8115,2.8114,2.8056,2.8055,0,0,0,0,0,0,2.8226,2.822,2.8184,2.8182,2.8206,2.8185,2.8181,2.8173,2.8153,2.815,2.8166,2.8166,2.8134,2.8131,2.8128,2.8103,2.8116,2.8114,2.8113,2.8056,2.8055,2.8055,0,0,0,0,0,0,2.8227,2.8222,2.8185,2.8201,2.8196,2.8184,2.8174,2.8173,2.8165,2.815,2.8147,2.8161,2.8134,2.813,2.811,2.8102,2.8113,2.8112,2.8057,2.8056,2.8055,2.8055,0,0,0,0,0,0,2.8228,2.8223,2.8216,2.8201,2.8195,2.817,2.8174,2.8172,2.8163,2.8163,2.8145,2.8142,2.8134,2.8113,2.8108,2.81,2.811,2.8057,2.8056,2.8055,2.8056,2.8054,2.8053,0,0,0,0,0,2.823,2.8216,2.8216,2.8212,2.8187,2.8169,2.8166,2.8159,2.8162,2.8155,2.8145,2.8143,2.8104,2.8111,2.8106,2.8097,2.8058,2.8057,2.8055,2.8056,2.8055,2.8053,0,0,0,0,0,0,2.8229,2.8214,2.8214,2.8195,2.8184,2.8169,2.8159,2.8157,2.8143,2.8144,2.8134,2.813,2.8111,2.8102,2.811,2.8077,2.8081,2.8079,2.8083,2.8082,2.808,2.8083,2.8109,0,0,0,0,0,2.8227,2.8216,2.8203,2.8187,2.8182,2.8172,2.8164,2.8159,2.8146,2.8141,2.813,2.8116,2.8101,2.8091,2.8076,2.8055,2.805,2.8046,2.8045,2.8044,2.8042,2.8029,2.8027,2.8051,2.8051,2.8051,0,0,2.8222,2.8213,2.8206,2.8187,2.8178,2.8165,2.8168,2.8153,2.8143,2.8138,2.8119,2.8111,2.8095,2.8074,2.8064,2.8066,2.8034,2.8042,2.8042,2.804,2.8028,2.8026,2.8024,2.8051,2.8051,2.8051,0,0,2.8207,2.8199,2.8186,2.8177,2.8163,2.8157,2.8153,2.8139,2.8133,2.8115,2.8111,2.8098,2.8072,2.8061,2.8052,2.8033,2.803,2.8028,2.8021,2.801,2.8008,2.8006,2.7998,2.7996,2.8026,2.8026,2.8026,0,2.8202,2.8184,2.8178,2.8165,2.8156,2.8154,2.8139,2.813,2.8112,2.8106,2.8108,2.8076,2.8065,2.8042,2.8037,2.803,2.8025,2.803,2.8009,2.8007,2.8005,2.7998,2.7995,2.8026,2.8026,2.8026,2.8026,0,2.8178,2.8165,2.8156,2.814,2.8131,2.8117,2.8108,2.8099,2.8096,2.8089,2.8069,2.8056,2.8039,2.8033,2.8029,2.8009,2.801,2.8011,2.8015,2.8003,2.7996,2.7993,2.8026,2.8026,2.8026,2.8026,0,0,2.816,2.8143,2.814,2.8132,2.8118,2.8107,2.8093,2.8077,2.8069,2.8057,2.8044,2.8022,2.8023,2.8013,2.8007,2.7997,2.7983,2.7999,2.7998,2.7996,2.7959,2.7958,2.7955,2.7981,2.7981,2.798,2.796,0,2.8143,2.8119,2.8114,2.8092,2.808,2.8077,2.8065,2.8054,2.8047,2.8034,2.8026,2.8011,2.8013,2.8007,2.7997,2.7987,2.7975,2.7988,2.7967,2.7967,2.7971,2.7952,2.795,2.7932,2.7957,2.7957,2.7957,0,2.8118,2.8107,2.8085,2.8072,2.8067,2.8056,2.8041,2.803,2.8017,2.8013,2.8002,2.7998,2.7981,2.7987,2.7964,2.7973,2.7964,2.7958,2.7957,2.7954,2.796,2.7947,2.7926,2.7923,2.7952,2.7953,2.7953,0,2.8107,2.8086,2.807,2.8064,2.8049,2.8042,2.8035,2.8022,2.8014,2.8,2.7994,2.7979,2.797,2.7958,2.7949,2.7955,2.7927,2.7932,2.7921,2.7921,2.7914,2.7915,2.7891,2.791,2.791,2.791,2.7911,0,2.8087,2.8073,2.8065,2.8055,2.8039,2.8034,2.8018,2.8011,2.8,2.7988,2.7984,2.7972,2.7963,2.7949,2.7942,2.7923,2.792,2.7914,2.7913,2.7914,2.7915,2.7908,2.7908,2.791,2.791,2.791,2.791,0,2.8071,2.8065,2.8048,2.8036,2.8032,2.8021,2.801,2.7999,2.7993,2.7977,2.7973,2.7962,2.7946,2.7937,2.7916,2.7912,2.7891,2.789,2.7896,2.7895,2.7885,2.7885,2.7855,2.785,2.7873,2.7873,2.7873,0,2.8059,2.8048,2.8035,2.8028,2.8021,2.8009,2.8,2.7994,2.7985,2.797,2.7961,2.7946,2.7932,2.7907,2.7896,2.788,2.7878,2.7868,2.7875,2.7877,2.7877,2.7877,2.7876,2.7867,2.7867,2.7866,2.7866,0,2.8036,2.8034,2.8023,2.8011,2.8001,2.799,2.798,2.7973,2.7965,2.7955,2.794,2.793,2.791,2.7893,2.7877,2.7868,2.7865,2.7864,2.7861,2.7862,2.7865,2.7863,2.7891,2.7865,2.7865,2.7865,2.7865,2.7865,2.8021,2.8012,2.8002,2.7989,2.7981,2.7972,2.7961,2.7954,2.7942,2.7926,2.7923,2.7906,2.7893,2.7871,2.7862,2.7848,2.7849,2.7845,2.7843,2.7842,2.7841,2.7869,2.7845,2.7845,2.7845,2.7845,2.7845,0,2.7998,2.7992,2.7981,2.7967,2.7957,2.7958,2.7946,2.7937,2.7923,2.7912,2.79,2.7882,2.7866,2.7855,2.7839,2.783,2.7828,2.7826,2.7825,2.7823,2.7841,2.7845,2.7827,2.7827,2.7827,2.7827,2.7827,2.7827,2.7985,2.797,2.7966,2.7946,2.794,2.7925,2.7918,2.7909,2.79,2.7881,2.7868,2.7862,2.785,2.7834,2.7819,2.7816,2.781,2.7807,2.7804,2.782,2.7822,2.7824,2.7828,2.7806,2.7806,2.7787,2.7787,2.7787]}]]